Home > Weather > Raufoss > Past weeks

Flag for Norway Weather for the Past 2 Weeks in Raufoss, Norway

Now
32 °F

Chilly.


Feels Like: 32 °F
Forecast: 34 / 36 °F
Wind: 1 mph from Southwest

Location: Lillehammer-Saetherengen

Current Time: Feb 7, 2016 at 3:09:03 AM

Latest Report: Feb 7, 2016 at 1:00 AM


Visibility: N/A

Pressure: 29.32 "Hg

Humidity: 97%

Dew point: 31 °F

Location of RaufossLocation

Historic Weather in Raufoss — Graph

°F

Raufoss Temperature Yesterday

Maximum temperature yesterday: 41 °F (at 2:00 PM)
Minimum temperature yesterday: 27 °F (at 4:00 AM)
Average temperature yesterday: 32 °F

High & Low Weather Summary for the Past Weeks

 TemperatureHumidityPressure
High41 °F (Jan 29, 4:00 PM)98% (Jan 28, 1:00 AM)30.22 "Hg (Jan 28, 1:00 AM)
Low7 °F (Jan 23, 1:00 AM)50% (Jan 30, 4:00 PM)28.73 "Hg (Jan 29, 4:00 PM)
Average25 °F87%29.48 "Hg
* Reported Jan 23 1:00 AM — Feb 7 1:00 AM, Raufoss, Weather by CustomWeather, © 2016

Note: Actual official high and low records may vary slightly from our data, if they occured in-between our weather recording intervals... More about our weather records

Advertising

Raufoss Weather History for the Previous 24 Hours

 ConditionsComfort  
Time TempWeatherWind HumidityBarometerVisibility
1:00 AM
Sun, Feb 7
32 °FChilly.1 mph97%29.32 "HgN/A
11:00 PM
Sat, Feb 6
31 °FChilly.1 mph96%29.38 "HgN/A
10:00 PM32 °FChilly.1 mph95%29.41 "HgN/A
9:00 PM31 °FChilly.No wind96%29.44 "HgN/A
8:00 PM31 °FChilly.No wind95%29.44 "HgN/A
7:00 PM32 °FChilly.1 mph93%29.44 "HgN/A
6:00 PM33 °FChilly.2 mph93%29.44 "HgN/A
5:00 PM33 °FChilly.1 mph88%29.41 "HgN/A
4:00 PM36 °FChilly.1 mph83%29.38 "HgN/A
3:00 PM38 °FChilly.3 mph80%29.35 "HgN/A
2:00 PM41 °FQuite cool.2 mph85%29.35 "HgN/A
1:00 PM36 °FChilly.1 mph95%29.35 "HgN/A
12:00 PM36 °FChilly.2 mph91%29.35 "HgN/A
11:00 AM33 °FChilly.2 mph96%29.35 "HgN/A
10:00 AM32 °FChilly.1 mph97%29.35 "HgN/A
9:00 AM30 °FChilly.1 mph97%29.38 "HgN/A
8:00 AM29 °FChilly.1 mph97%29.41 "HgN/A
7:00 AM28 °FChilly.1 mph97%29.44 "HgN/A
6:00 AM28 °FChilly.1 mph96%29.47 "HgN/A
5:00 AM27 °FChilly.1 mph96%29.50 "HgN/A
4:00 AM27 °FChilly.1 mph96%29.57 "HgN/A
Weather by CustomWeather, © 2016

See weather overviewHow to use our weather pages